Volver al catálogo

COSMOS 839 DEB

ActivoUNKNOWN
NORAD 21128·DEBRIS·🇷🇺 Russia

Lanzado Jul 8, 1976 desde Plesetsk Cosmodrome

Loading…

Próximos Pases (próximas 24 horas)

TLE

ActualizadoSource: Space-Track

Época: Sep 13, 2026, 11:30 UTC

1 21128U 76067BY  26256.47976130 -.00000286  00000-0 -77024-3 0  9999
2 21128  66.0401  37.9558 0666340  40.7327  19.0013 12.42242008627563

Sigue COSMOS 839 DEB en tiempo real con AllMySat

Download on the App Store